Regional Weather Roundup
Issued by NWS

Home | Current Version | Previous Version | Text Only | Print | Product List | Glossary On
Versions: 1 2 3 4 5 6 7 8 9 10 11 12 13 14 15 16 17 18 19 20 21 22 23 24 25 26 27
000
ASUS42 KTBW 280317
RWRFL
FLORIDA REGIONAL WEATHER ROUNDUP
NATIONAL WEATHER SERVICE TAMPA BAY RUSKIN FL
1100 PM EDT SAT MAY 27 2017

NOTE: "FAIR" INDICATES FEW OR NO CLOUDS BELOW 12,000 FEET WITH NO
SIGNIFICANT WEATHER AND/OR OBSTRUCTIONS TO VISIBILITY.

FLZ001>010-012>015-112-114-115-280400-
PANHANDLE FLORIDA

CITY           SKY/WX    TMP DP  RH WIND       PRES   REMARKS
PENSACOLA      MOCLDY    79  74  84 SW9       30.00R
PENSACOLA NAS  CLOUDY    78  76  93 SW8       29.99R
MILTON NAS     LGT RAIN  75  73  93 SW5       30.00
CRESTVIEW      CLEAR     76  72  87 SW5       30.02R
DUKE FIELD     FAIR      76  73  91 SW5       30.00R
VALPARAISO     PTCLDY    78  74  88 SW6       30.00R
MARY ESTHER    PTCLDY    77  77 100 SW3       29.99R
PANAMA CITY    CLOUDY    77  74  90 CALM      30.01R
TYNDALL AFB    CLEAR     78  74  90 SW6       30.01R
APALACHICOLA   CLEAR     78  76  93 SW9       30.00S

STATION/POSITION SKY/WX   TEMP    WIND        PRES    WAVE   SWELL
                          AIR SEA DIR/SP/G            HT/PER HT/PER
                          (F)     (DEG/KT/KT) (MB)    (FT/S) (FT/S)
30.1N   87.6W              78 79  200/ 16/ 17 1014.9F   2/ 4   2/ 8
29.2N   88.2W              79 80  170/ 12/ 14 1016.3R   2/ 4
28.8N   86.0W              79 79  200/  6/  8 1016.6    1/10   2/10
PANAMA CITY BEAC           78 81  230/ 11/ 13 1016.3R
TOWER C                    77     230/ 13/ 14 1016.8R
28.5N   84.5W              78 79  220/  8/ 10 1016.9R   1/ 7   2/ 7

$$
FLZ011-016>038-118-127-128-134-139-239-280400-
NORTH FLORIDA

CITY           SKY/WX    TMP DP  RH WIND       PRES   REMARKS
MARIANNA       CLEAR     78  72  81 SW7       30.00R
TALLAHASSEE    CLEAR     76  72  87 CALM      30.00R
PERRY          CLEAR     74  72  93 CALM      30.02R
CROSS CITY     CLEAR     72  68  88 S3        30.02S
LAKE CITY      FAIR      72  64  78 W5        30.01S
GAINESVILLE    CLEAR     72  61  68 W9        30.02R
WILLISTON      CLEAR     72  68  88 CALM      30.02S
PALATKA        FAIR      73  63  68 CALM      30.01R
MAYPORT NAS    CLEAR     76  69  79 S7        30.00R
JACKSONVILLE   PTCLDY    78  62  57 S5        29.99R
JAX NAS        CLEAR     80  65  59 S9        30.01R
FERNANDINA BEA FAIR      79  66  65 S9        29.98S
ST AUGUSTINE   CLEAR     75  66  73 S7        30.01R
PALM COAST     FAIR      72  67  84 S3        30.01R

STATION/POSITION SKY/WX   TEMP    WIND        PRES    WAVE   SWELL
                          AIR SEA DIR/SP/G            HT/PER HT/PER
                          (F)     (DEG/KT/KT) (MB)    (FT/S) (FT/S)
SHELL POINT      NOT AVBL
KEATON BEACH               78     230/ 11/ 13 1016.0R
CEDAR KEY                  77     260/  7/  9 1016.9F
FERNANDINA                 78 79  170/  5/  8 1016.3R
30.7N   81.3W                 79                N/A     3/ 4
MAYPORT                    76 79  210/  4/  7 1016.2R
31.4N   80.9W              78 78  180/ 14/ 16 1014.0    2/ 7   2/ 7
ST AUGUSTINE               74 78  210/  4/  6 1016.9R

$$
FLZ040-043>046-052-053-057-058-063-144-280400-
INTERIOR CENTRAL FLORIDA

CITY           SKY/WX    TMP DP  RH WIND       PRES   REMARKS
OCALA          CLEAR     69  65  86 S3        30.03S
THE VILLAGES     N/A    N/A N/A N/A MISG        N/A
LEESBURG       CLEAR     75  64  68 MISG      30.03S
SANFORD        CLEAR     79  50  36 SW6       30.02R
ORLANDO EXEC   CLEAR     80  55  42 NW5       30.03R
ORLANDO INTL   PTCLDY    75  55  49 VRB3      30.03R
KISSIMMEE      CLEAR     73  55  53 W5        30.03F
WINTER HAVEN   CLEAR     75  58  55 W3        30.04F
LAKELAND       CLEAR     68  57  68 SW3       30.04F
BARTOW         FAIR      72  55  56 W6        30.04S
OKEECHOBEE     CLEAR     73  59  60 CALM      30.04R

$$
FLZ041-047-054-059-064-141-147-280400-
EAST CENTRAL FLORIDA

CITY           SKY/WX    TMP DP  RH WIND       PRES   REMARKS
DAYTONA BEACH  CLEAR     74  69  85 S5        30.01S
DELAND         CLEAR     79  55  44 SW6       30.01S
JFK SPACE CTR  CLEAR     75  73  91 W6        30.01R
CAPE CANAVERAL CLEAR     76  73  90 S9        30.00S
PATRICK AFB    CLEAR     77  76  96 S8        30.01S
MELBOURNE      CLEAR     79  76  90 S5        30.01S
VERO BEACH     CLEAR     80  78  94 S9        30.02S
FT PIERCE      CLEAR     81  78  91 S6        30.02R
STUART         CLEAR     81  81 100 S5        30.04S

STATION/POSITION SKY/WX   TEMP    WIND        PRES    WAVE   SWELL
                          AIR SEA DIR/SP/G            HT/PER HT/PER
                          (F)     (DEG/KT/KT) (MB)    (FT/S) (FT/S)
28.5N   80.2W              78 77  170/  6/  8 1017.2S   2/ 7   2/ 7
28.9N   78.5W              79 80  170/ 12/ 14 1016.8R   2/ 8   2/ 8
TRIDENT PIER               76 79  150/  6/ 10 1017.7F
28.4N   80.5W                 76                N/A     1/ 8
27.5N   80.2W                 80                N/A     2/ 7

$$
FLZ050-056-061-142-242-148-248-149-249-151-251-155-255-
160-260-280400-
WEST CENTRAL FLORIDA

CITY           SKY/WX    TMP DP  RH WIND       PRES   REMARKS
CRYSTAL RIVER  FAIR      64  63  94 CALM      30.03S
INVERNESS      FAIR      68  66  94 CALM      30.04R
BROOKSVILLE    CLEAR     66  63  90 CALM      30.05S
CLEARWATER AIR FAIR      73  68  83 CALM      30.04S
ST PETE CLEARW CLEAR     73  66  78 CALM      30.04S
TAMPA INTL     CLEAR     76  66  71 W5        30.05S
TAMPA EXEC     CLEAR     68  63  83 CALM      30.05S
PLANT CITY     CLEAR     73  63  68 W5        30.06S
MACDILL AFB    CLEAR     73  67  84 W5        30.04F
PETER O KNIGHT CLEAR     77  70  78 CALM      30.05S
ST PETERSBURG  CLEAR     78  67  68 SW3       30.03S
SARASOTA         N/A     75  65  70 W3        30.04S
VENICE         FAIR      79  68  69 NW6       30.06S

STATION/POSITION SKY/WX   TEMP    WIND        PRES    WAVE   SWELL
                          AIR SEA DIR/SP/G            HT/PER HT/PER
                          (F)     (DEG/KT/KT) (MB)    (FT/S) (FT/S)
27.3N   84.2W                 79                N/A     1/ 7
CLEARWATER BEACH           78 83  250/  5/  6 1017.5S
MIDDLE TAMPA BAY           78     280/  3/  5 1017.8S
VENICE                     79 82  310/  9/ 10 1017.4S

$$
FLZ066-069-070-075>078-162-262-165-265-280400-
SOUTHWEST FLORIDA AND KEYS

CITY           SKY/WX    TMP DP  RH WIND       PRES   REMARKS
PUNTA GORDA    CLEAR     76  64  66 NW7       30.07R
FT MYERS       CLEAR     79  67  66 NW8       30.05R
SOUTHWEST INTL CLEAR     77  69  76 NW6       30.05R
NAPLES         CLEAR     81  72  74 NW8       30.05R
MARCO ISLAND   CLEAR     79  72  78 NW9       30.04F
IMMOKALEE      CLOUDY    77  70  78 W5        30.05S
MARATHON       CLEAR     85  76  74 N5        30.04S
KEY WEST NAS   CLEAR     83  77  82 N8        30.05R
KEY WEST INTL  CLEAR     84  77  79 N8        30.05S

STATION/POSITION SKY/WX   TEMP    WIND        PRES    WAVE   SWELL
                          AIR SEA DIR/SP/G            HT/PER HT/PER
                          (F)     (DEG/KT/KT) (MB)    (FT/S) (FT/S)
NAPLES                        86  320/ 13/ 15 1017.5R
DRY TORTUGAS               82      60/ 10/ 11 1017.7R
SAND KEY                   83      20/ 10/ 11 1018.1R
LONG KEY                   85 89  300/  8/  8 1017.3R
MOLASSES REEF              83 82  230/  7/  7 1017.5R

$$
FLZ067-068-071>074-168-172>174-280400-
SOUTHEAST FLORIDA

CITY           SKY/WX    TMP DP  RH WIND       PRES   REMARKS
W PALM BEACH   PTCLDY    83  75  77 S7        30.04R
BOCA RATON     CLEAR     82  75  78 S5        30.04R
FT LAUDER-EXEC CLEAR     87  73  62 SE3       30.03R
FT LAUDERDALE  PTCLDY    85  75  72 S5        30.02S
POMPANO BEACH  CLEAR     84  76  76 SE6       30.03R
PEMBROKE PINES CLEAR     85  75  72 SE3       30.04S
OPA LOCKA      CLEAR     85  78  80 SE7       30.03S HX  96
MIAMI          PTCLDY    85  77  77 VRB7      30.03S HX  95
WEST KENDALL     N/A    N/A N/A N/A MISG        N/A
HOMESTEAD      CLEAR     80  77  91 SW6       30.04R

STATION/POSITION SKY/WX   TEMP    WIND        PRES    WAVE   SWELL
                          AIR SEA DIR/SP/G            HT/PER HT/PER
                          (F)     (DEG/KT/KT) (MB)    (FT/S) (FT/S)
PORT EVERGLADES            83     170/  6/  9 1016.9R
VIRGINIA KEY               85 86  150/  8/  9 1016.5R
LAKE WORTH                 83 84              1017.9R
FOWEY ROCKS                83 83  180/ 11/ 12 1017.7R
SETTLEMENT POINT           82     160/  6/  7 1017.3R

$$





USA.gov is the U.S. government's official web portal to all federal, state and local government web resources and services.